Regional Weather Roundup
Issued by NWS Sioux Falls, SD

Home | Current Version | Previous Version | Text Only | Print | Product List | Glossary On
Versions: 1 2 3 4 5 6 7 8 9 10 11 12 13 14 15 16 17 18 19 20 21 22 23 24 25 26 27 28 29 30 31 32 33 34 35 36 37 38 39 40 41 42 43 44 45 46 47 48 49 50
000
ASUS43 KFSD 230402
RWRFSD

WEATHER ROUNDUP FOR SE SOUTH DAKOTA/SW MINNESOTA/NW IOWA
NATIONAL WEATHER SERVICE SIOUX FALLS SD
1100 PM CDT WED OCT 22 2014

NOTE: "FAIR" INDICATES FEW OR NO CLOUDS BELOW 12,000 FEET WITH NO
SIGNIFICANT WEATHER AND OR OBSTRUCTIONS TO VISIBILITY.


SDZ038>040-050-052>070-230500-
SOUTHEAST SOUTH DAKOTA

CITY           SKY/WX    TMP DP  RH WIND       PRES   REMARKS
CHAMBERLAIN    CLEAR     45  42  91 SW5       30.01R
HURON          CLEAR     50  47  89 SW7       29.98S
MADISON        FOG       52  52 100 SW7       30.01S VSB<1/4
MITCHELL       CLEAR     50  49  96 S6        30.01S
SIOUX FALLS    CLOUDY    54  53  97 SW3       30.02S
WINNER         FAIR      54  39  57 SW7       30.02F
YANKTON        PTCLDY    52  52 100 SW6       30.04S
$$

MNZ071-072-080-081-089-090-097-098-230500-
SOUTHWEST MINNESOTA

CITY           SKY/WX    TMP DP  RH WIND       PRES   REMARKS
FAIRMONT       CLOUDY    55  45  67 S13       30.04S
JACKSON        CLOUDY    55  54  94 S10       30.03S
LUVERNE        CLOUDY    55  54  94 W6        30.02F FOG
MARSHALL       CLOUDY    57  52  82 W9        29.99R
MONTEVIDEO     CLOUDY    57  55  94 W3        29.98S
PIPESTONE      CLOUDY    55  54  94 W7        30.01S
REDWOOD FALLS  CLOUDY    57  54  89 S10       29.98S
TRACY          DRIZZLE   58  57  95 W9        30.00R
WINDOM         LGT RAIN  57  55  94 S9        30.01S
WORTHINGTON    CLOUDY    57  55  94 S9        30.02F
$$

IAZ001>003-012>014-020>022-031-032-NEZ013-014-SDZ071-230500-
NORTHWEST IOWA

CITY           SKY/WX    TMP DP  RH WIND       PRES   REMARKS
CHEROKEE       CLOUDY    58  58 100 S7        30.04F
DENISON        CLOUDY    59  59 100 SE10      30.04F
ESTHERVILLE    CLOUDY    54  52  93 S18       30.03F
LE MARS        CLOUDY    59  59 100 S5        30.03F
ORANGE CITY    CLOUDY    61  57  88 S3        30.03F
SHELDON        CLOUDY    57  57 100 S10       30.02F
SIOUX CITY     CLOUDY    60  59  96 E3        30.03F
SPENCER        CLOUDY    59  56  89 S12       30.03F
STORM LAKE     CLOUDY    57  55  94 S14       30.06F
$$

ABBREVIATIONS USED IN REMARKS
   TC - TEMPERATURE IN CELSIUS
  WCI - WIND CHILL INDEX
   HX - HEAT INDEX
  VSB - VISIBILITY




USA.gov is the U.S. government's official web portal to all federal, state and local government web resources and services.